Location: Clarion
(42.7316°N, 93.7330°W)
Time: 22:04:52
(UTC+00:00)

USA 267 - Pass Details

Date: 22 April 2026
Orbit: 1101 x 1107 km, 123.0° (Epoch: 10 January)

Event Time Altitude Azimuth Distance (km) Brightness Sun altitude
Rises 10:15:41 0° 48° (NE) 3,934 8.0 -12.0°
Reaches altitude 10° 10:18:19 10° 42° (NE) 2,974 6.8 -11.6°
Maximum altitude 10:24:18 39° 336° (NNW) 1,592 4.2 -10.7°
Drops below altitude 10° 10:30:17 10° 270° (W) 2,965 5.0 -9.7°
Enters shadow 10:30:45 - 269° (W) 3,129 5.1 -9.6°
